User: anonymous   Login
Location: ????????
(55.6189°N, 38.3031°E)
Time: 01:41:48
(UTC+00:00)
Language:

SL-16 R/B - Orbit

View from above orbital plane
View from above orbital plane
View from above satellite
View from above satellite

Ground track
Ground track

The orbit data is extracted from the following two-line orbital elements,

1 28353U 04021B   20021.09635599  .00000253  00000-0  15750-3 0  9990
2 28353  70.9982 250.4733 0006272 217.2282 142.8406 14.14226984806171
Epoch (UTC): 21 January 2020 02:18:45
Eccentricity: 0.0006272
inclination: 70.9982°
perigee height: 840 km
apogee height: 849 km
right ascension of ascending node: 250.4733°
argument of perigee: 217.2282°
revolutions per day: 14.14226984
mean anomaly at epoch: 142.8406°
orbit number at epoch: 80617

The dashed part of the orbit path shows where the satellite is in the earth's shadow,  

DLR